Weather observations for the past three days for
Wooster, Wayne County Airport
Imperial (Metric)
Date Time (edt) Wind (mph) Vis. (mi.) Weather Sky Cond. Temperature (ºF) Relative Humidity Wind Chill (°F) Heat Index (°F) Pressure Precipitation (in)
Air Dwpt 6 hour altimeter (in) sea level (mb) 1 hr 3 hr 6 hr
Max. Min.
24 09:56 N 9 10.00 A Few Clouds FEW025 72 57.9 61% 29.98 1014.5
24 08:56 N 8 10.00 Mostly Cloudy BKN095 71.1 60.1 68% 29.96 1013.7
24 07:56 Calm 10.00 Partly Cloudy FEW060 SCT095 68 60.1 68 63 76% 29.94 1013.0
24 05:56 N 5 10.00 A Few Clouds FEW060 63 60.1 90% 29.89 1011.2
24 04:56 Calm 10.00 Overcast FEW047 FEW055 OVC070 66 61 84% 29.86 1010.2
24 03:56 NW 6 10.00 Overcast BKN043 OVC055 66.9 62.1 84% 29.85 1010.0
24 02:56 N 6 10.00 Mostly Cloudy BKN034 BKN090 66.9 63 87% 29.83 1009.4
24 01:56 N 6 6.00 Light Rain Fog/Mist SCT042 BKN049 OVC055 68 64 80.1 68 87% 29.82 1009.1 0.03 0.03
24 00:56 N 5 10.00 Mostly Cloudy SCT024 SCT028 BKN033 69.1 64 84% 29.81 1008.7
23 23:56 W 6 10.00 Mostly Cloudy BKN070 71.1 63 76% 29.8 1008.2
23 22:56 NW 6 10.00 Mostly Cloudy FEW041 BKN065 71.1 63 76% 29.78 1007.7
23 21:56 NW 8 10.00 Partly Cloudy SCT035 SCT049 73 63 71% 29.77 1007.3
23 20:56 N 10 10.00 Mostly Cloudy FEW040 SCT050 BKN060 75.9 64 67% 78 29.74 1006.4
23 19:56 NW 13 10.00 Partly Cloudy SCT043 80.1 64 84.9 77 58% 82 29.73 1005.5 0.01
23 18:56 NW 20 G 32 10.00 A Few Clouds FEW039 FEW049 82 64.9 56% 84 29.72 1005.4
23 17:56 W 22 G 33 10.00 Partly Cloudy and Breezy FEW042 SCT048 SCT060 84.9 66.9 55% 88 29.7 1004.7
23 16:56 NW 20 G 29 10.00 Mostly Cloudy BKN033 BKN045 84 70 63% 88 29.69 1004.4 0.01
23 15:56 W 22 G 29 10.00 Mostly Cloudy and Breezy FEW020 SCT028 BKN090 82 72 72% 87 29.7 1004.4 0.01
23 14:56 SW 14 10.00 Mostly Cloudy FEW016 BKN026 BKN039 81 73 77% 86 29.71 1005.0
23 13:56 SW 13 10.00 Overcast OVC020 77 71.1 80.1 70 82% 79 29.73 1005.5 0.08
23 12:56 SW 14 G 25 10.00 Overcast SCT023 BKN028 OVC032 78.1 70 76% 80 29.73 1005.6
23 11:56 SW 18 G 26 10.00 Light Rain BKN019 BKN034 BKN050 77 70 79% 79 29.74 1006.1
23 10:56 SW 14 G 21 10.00 Mostly Cloudy SCT017 BKN039 75.9 70 82% 77 29.75 1006.2 0.08
23 09:56 W 5 10.00 Light Rain FEW030 SCT050 BKN075 72 68 87% 29.76 1006.8 0.03
23 08:56 S 12 3.00 Rain Fog/Mist FEW048 BKN090 OVC110 70 66 87% 29.74 1006.0 0.05
23 07:56 W 17 G 28 10.00 Mostly Cloudy BKN039 80.1 66.9 81 79 64% 82 29.76 1006.6
23 06:56 SW 12 10.00 Fair CLR 79 66.9 67% 81 29.76 1006.5
23 05:56 SW 10 10.00 Fair CLR 80.1 66.9 64% 82 29.77 1006.9
23 04:56 SW 10 G 20 10.00 Fair CLR 81 66.9 62% 83 29.78 1007.2
23 03:56 SW 13 G 21 10.00 Fair CLR 81 68 65% 84 29.79 1007.6
23 02:56 SW 9 10.00 Fair CLR 81 69.1 67% 84 29.82 1008.5
23 01:56 SW 8 10.00 Fair CLR 81 69.1 87.1 80.1 67% 84 29.84 1009.3
23 00:56 SW 7 9.00 Fair CLR 80.1 69.1 69% 83 29.86 1010.1
22 23:56 SW 8 9.00 Fair CLR 81 70 69% 84 29.87 1010.3
22 22:56 S 7 9.00 Fair CLR 82 69.1 65% 85 29.88 1010.7
22 21:56 S 7 10.00 Fair CLR 82 69.1 65% 85 29.88 1010.7
22 20:56 S 6 10.00 Fair CLR 84 68 59% 87 29.9 1011.2
22 19:56 SW 8 10.00 Fair CLR 88 66 93 87.1 48% 90 29.91 1011.8
22 18:56 W 12 G 17 10.00 A Few Clouds FEW065 90 66 45% 93 29.93 1012.3
22 17:56 SW 12 G 20 10.00 A Few Clouds FEW060 90 66.9 47% 93 29.94 1012.7
22 16:56 SW 15 G 21 10.00 Partly Cloudy SCT060 91 68 47% 95 29.95 1013.1
22 15:56 W 13 10.00 Fair CLR 91.9 68 46% 96 29.98 1013.9
22 14:56 W 12 10.00 Partly Cloudy SCT060 SCT090 91.9 69.1 47% 97 30 1014.7
22 13:56 SW 16 G 22 10.00 A Few Clouds FEW055 91 66 91 78.1 44% 94 30.01 1015.2
22 12:56 W 13 10.00 Partly Cloudy FEW055 SCT070 89.1 66.9 48% 92 30.04 1016.3
22 11:56 W 9 10.00 A Few Clouds FEW050 FEW060 91 66.9 45% 94 30.06 1016.9
22 10:56 W 8 10.00 Fair CLR 89.1 68 50% 93 30.07 1017.3
22 09:56 W 8 10.00 Fair CLR 86 69.1 57% 90 30.09 1017.7
22 08:56 W 8 9.00 Fair CLR 82 69.1 65% 85 30.1 1018.1
22 07:56 W 5 8.00 Fair CLR 78.1 69.1 78.1 71.1 74% 80 30.11 1018.4
22 06:56 Calm 6.00 Fair with Haze CLR 75 70 84% 75 30.1 1018.3
22 05:56 Calm 5.00 Fog/Mist CLR 72 68 87% 30.1 1018.3
22 04:56 Calm 7.00 Fair CLR 73 68 84% 30.1 1018.2
22 03:56 Calm 7.00 Fair CLR 72 68 87% 30.1 1018.2
22 02:56 S 3 8.00 Fair CLR 73.9 69.1 85% 30.1 1018.2
22 01:56 SE 3 8.00 Fair CLR 73.9 68 88 72 82% 30.11 1018.4
22 00:56 Calm 8.00 Fair CLR 73.9 69.1 85% 30.12 1018.8
21 23:56 Calm 9.00 Fair CLR 75.9 70 82% 77 30.13 1019.3
21 22:56 Calm 10.00 Fair CLR 79 70 74% 82 30.14 1019.5
21 21:56 E 3 9.00 Fair CLR 80.1 71.1 74% 84 30.14 1019.6
21 20:56 Calm 9.00 Fair CLR 82 73 74% 87 30.13 1019.4
21 19:56 Calm 10.00 Fair CLR 88 71.1 93.9 86 57% 94 30.13 1019.3
21 18:56 NE 5 10.00 Fair CLR 89.1 70 53% 94 30.13 1019.3
21 17:56 NE 7 10.00 Fair CLR 89.1 71.1 55% 95 30.13 1019.3
21 16:56 N 14 G 24 10.00 Mostly Cloudy BKN060 BKN080 88 70 55% 93 30.15 1020.0
21 15:56 Calm 10.00 Fair CLR 93.9 69.1 44% 99 30.17 1020.5
21 14:56 NW 3 9.00 Mostly Cloudy SCT055 BKN090 BKN100 91.9 68 46% 96 30.17 1020.7
21 13:56 NW 5 10.00 Mostly Cloudy FEW047 FEW055 BKN070 91 70 91.9 77 50% 97 30.2 1021.7
21 12:56 NW 7 9.00 Partly Cloudy SCT042 91 72 54% 99 30.23 1022.6
21 11:56 SE 3 8.00 A Few Clouds FEW095 87.1 73 63% 95 30.24 1022.9
21 10:56 Calm 8.00 Fair CLR 84.9 72 65% 91 30.24 1023.0
Date Time (edt) Wind (mph) Vis. (mi.) Weather Sky Cond. Air Dwpt Max. Min. Relative Humidity Wind Chill (°F) Heat Index (°F) altimeter (in) sea level (mb) 1 hr 3 hr 6 hr
6 hour
Temperature (ºF) Pressure Precipitation (in)